Location: Br�ttisellen
(47.4227°N, 8.6287°E)
Time: 01:19:29
(UTC+00:00)

Cosmos 2366 rocket - Pass Details

Date: 09 April 2020
Orbit: 956 x 996 km, 82.9° (Epoch: 30 May)

Event Time Altitude Azimuth Distance (km) Brightness Sun altitude
Rises 19:35:50 0° 354° (N) 3,647 7.5 -14.8°
Reaches altitude 10° 19:38:25 10° 359° (N) 2,698 6.7 -15.2°
Maximum altitude 19:44:25 52° 76° (ENE) 1,178 4.2 -16.0°
Enters shadow 19:48:09 23° 143° (SE) 1,918 5.0 -16.6°
